When you browse on this site, cookies collect data to enhance your experience and personalize the content and advertising you see.
Visit our Privacy Policy to learn more. By continuing to use the site, you agree to this use of cookies and data.
  • în România
  • Lista ţărilor
  • Pe 7 zile
  • Temperatura apei
  • Hartă satelitară
  • Meteo pe hartă
  • Widget-uri
  • user-avatar
    Intrare

    Meteo pe oră la Bolshie Shady

    Astăzi, 22 Iulie, Luni

    Timp Temperatura Precipitaţii Vânt Presiune Umiditate
    00:00 +16°C° 0 mm 2 m/s 747 mmHg 93%
    01:00 +16°C° 0 mm 2 m/s 747 mmHg 94%
    02:00 +15°C° 0 mm 2 m/s 747 mmHg 94%
    03:00 +15°C° 0 mm 2 m/s 747 mmHg 94%
    04:00 +15°C° 0 mm 2 m/s 747 mmHg 96%
    05:00 +14°C° 0 mm 3 m/s 747 mmHg 95%
    06:00 +16°C° 0 mm 3 m/s 747 mmHg 93%
    07:00 +17°C° 0 mm 3 m/s 747 mmHg 92%
    08:00 +18°C° 0.2 mm 3 m/s 747 mmHg 88%
    09:00 +19°C° 0.2 mm 4 m/s 747 mmHg 85%
    10:00 +20°C° 0 mm 4 m/s 747 mmHg 82%
    11:00 +21°C° 0.5 mm 4 m/s 747 mmHg 80%
    12:00 +21°C° 0.5 mm 4 m/s 746 mmHg 78%
    13:00 +22°C° 0.5 mm 4 m/s 746 mmHg 76%
    14:00 +22°C° 0.3 mm 4 m/s 746 mmHg 75%
    15:00 +22°C° 0.3 mm 4 m/s 746 mmHg 75%
    16:00 +22°C° 0.3 mm 4 m/s 746 mmHg 74%
    17:00 +22°C° 0.1 mm 3 m/s 746 mmHg 77%
    18:00 +21°C° 0.1 mm 3 m/s 746 mmHg 81%
    19:00 +20°C° 0.1 mm 2 m/s 745 mmHg 85%
    20:00 +19°C° 0.1 mm 2 m/s 745 mmHg 87%
    21:00 +18°C° 0.1 mm 2 m/s 745 mmHg 90%
    22:00 +16°C° 0.1 mm 2 m/s 745 mmHg 93%
    23:00 +16°C° 0 mm 2 m/s 745 mmHg 94%

    Mâine, 23 Iulie, Marţi

    Timp Temperatura Precipitaţii Vânt Presiune Umiditate
    00:00 +15°C° 0 mm 2 m/s 745 mmHg 94%
    01:00 +15°C° 0 mm 2 m/s 744 mmHg 95%
    02:00 +14°C° 0 mm 2 m/s 745 mmHg 96%
    03:00 +14°C° 0 mm 2 m/s 745 mmHg 96%
    04:00 +14°C° 0 mm 2 m/s 745 mmHg 97%
    05:00 +15°C° 0 mm 2 m/s 745 mmHg 96%
    06:00 +15°C° 0 mm 2 m/s 745 mmHg 95%
    07:00 +16°C° 0 mm 2 m/s 745 mmHg 95%
    08:00 +17°C° 0.1 mm 3 m/s 745 mmHg 92%
    09:00 +18°C° 0.1 mm 3 m/s 745 mmHg 89%
    10:00 +19°C° 0.1 mm 3 m/s 745 mmHg 86%
    11:00 +20°C° 0.5 mm 4 m/s 745 mmHg 82%
    12:00 +21°C° 0.5 mm 4 m/s 746 mmHg 79%
    13:00 +22°C° 0.5 mm 4 m/s 746 mmHg 76%
    14:00 +22°C° 0.5 mm 4 m/s 746 mmHg 76%
    15:00 +22°C° 0.5 mm 4 m/s 746 mmHg 77%
    16:00 +22°C° 0.5 mm 4 m/s 746 mmHg 77%
    17:00 +21°C° 0.2 mm 4 m/s 746 mmHg 81%
    18:00 +21°C° 0.2 mm 3 m/s 746 mmHg 84%
    19:00 +20°C° 0.2 mm 3 m/s 746 mmHg 88%
    20:00 +19°C° 0.3 mm 3 m/s 747 mmHg 90%
    21:00 +18°C° 0.3 mm 3 m/s 747 mmHg 92%
    22:00 +17°C° 0.3 mm 3 m/s 747 mmHg 95%
    23:00 +16°C° 0 mm 2 m/s 747 mmHg 95%

    Poimâine, 24 Iulie, Miercuri

    Timp Temperatura Precipitaţii Vânt Presiune Umiditate
    00:00 +16°C° 0 mm 2 m/s 747 mmHg 95%
    01:00 +15°C° 0 mm 2 m/s 747 mmHg 96%
    02:00 +15°C° 0 mm 2 m/s 747 mmHg 96%
    03:00 +15°C° 0 mm 2 m/s 748 mmHg 96%
    04:00 +14°C° 0 mm 1 m/s 748 mmHg 96%
    05:00 +16°C° 0 mm 2 m/s 748 mmHg 94%
    06:00 +17°C° 0 mm 2 m/s 748 mmHg 93%
    07:00 +18°C° 0 mm 2 m/s 749 mmHg 92%
    08:00 +19°C° 0 mm 3 m/s 749 mmHg 87%
    09:00 +20°C° 0 mm 3 m/s 749 mmHg 83%
    10:00 +21°C° 0 mm 3 m/s 749 mmHg 78%
    11:00 +22°C° 0.2 mm 3 m/s 749 mmHg 76%
    12:00 +23°C° 0.2 mm 4 m/s 749 mmHg 74%
    13:00 +25°C° 0.2 mm 4 m/s 749 mmHg 71%
    14:00 +25°C° 0.4 mm 4 m/s 749 mmHg 73%
    15:00 +25°C° 0.4 mm 4 m/s 749 mmHg 74%
    16:00 +25°C° 0.4 mm 3 m/s 749 mmHg 76%
    17:00 +24°C° 0.2 mm 3 m/s 749 mmHg 78%
    18:00 +24°C° 0.2 mm 2 m/s 750 mmHg 80%
    19:00 +23°C° 0.2 mm 2 m/s 750 mmHg 82%
    20:00 +21°C° 0 mm 2 m/s 750 mmHg 83%
    21:00 +20°C° 0 mm 2 m/s 750 mmHg 85%
    22:00 +18°C° 0 mm 2 m/s 750 mmHg 86%
    23:00 +18°C° 0 mm 2 m/s 750 mmHg 87%

    25 Iulie, Joi

    Timp Temperatura Precipitaţii Vânt Presiune Umiditate
    00:00 +17°C° 0 mm 2 m/s 751 mmHg 87%
    01:00 +18°C° 0 mm 1 m/s 751 mmHg 88%
    02:00 +18°C° 0 mm 1 m/s 751 mmHg 88%
    03:00 +16°C° 0 mm 1 m/s 751 mmHg 88%
    04:00 +16°C° 0 mm 1 m/s 751 mmHg 88%
    05:00 +18°C° 0 mm 1 m/s 751 mmHg 86%
    06:00 +20°C° 0 mm 1 m/s 751 mmHg 83%
    07:00 +21°C° 0 mm 1 m/s 751 mmHg 81%
    08:00 +22°C° 0 mm 1 m/s 751 mmHg 76%
    09:00 +24°C° 0 mm 1 m/s 752 mmHg 72%
    10:00 +25°C° 0 mm 1 m/s 752 mmHg 67%
    11:00 +26°C° 0 mm 1 m/s 752 mmHg 63%
    12:00 +27°C° 0 mm 2 m/s 752 mmHg 60%
    13:00 +28°C° 0 mm 2 m/s 752 mmHg 56%
    14:00 +28°C° 0 mm 2 m/s 752 mmHg 57%
    15:00 +28°C° 0 mm 2 m/s 751 mmHg 57%
    16:00 +28°C° 0 mm 2 m/s 751 mmHg 58%
    17:00 +27°C° 0 mm 2 m/s 751 mmHg 63%
    18:00 +26°C° 0 mm 2 m/s 751 mmHg 69%
    19:00 +25°C° 0 mm 2 m/s 751 mmHg 74%
    20:00 +23°C° 0 mm 2 m/s 751 mmHg 75%
    21:00 +21°C° 0 mm 2 m/s 751 mmHg 76%
    22:00 +19°C° 0 mm 2 m/s 751 mmHg 76%
    23:00 +19°C° 0 mm 2 m/s 751 mmHg 78%

    26 Iulie, Vineri

    Timp Temperatura Precipitaţii Vânt Presiune Umiditate
    00:00 +18°C° 0 mm 2 m/s 751 mmHg 81%
    01:00 +18°C° 0 mm 2 m/s 751 mmHg 83%
    02:00 +17°C° 0 mm 2 m/s 751 mmHg 82%
    03:00 +17°C° 0 mm 2 m/s 751 mmHg 81%
    04:00 +18°C° 0 mm 1 m/s 751 mmHg 80%
    05:00 +19°C° 0 mm 1 m/s 751 mmHg 78%
    06:00 +20°C° 0 mm 1 m/s 751 mmHg 76%
    07:00 +21°C° 0 mm 1 m/s 751 mmHg 74%
    08:00 +22°C° 0 mm 1 m/s 751 mmHg 70%
    09:00 +24°C° 0 mm 1 m/s 751 mmHg 66%
    10:00 +25°C° 0 mm 1 m/s 751 mmHg 62%
    11:00 +26°C° 0 mm 1 m/s 751 mmHg 59%
    12:00 +27°C° 0 mm 1 m/s 751 mmHg 57%
    13:00 +27°C° 0 mm 1 m/s 750 mmHg 55%
    14:00 +28°C° 0 mm 1 m/s 750 mmHg 55%
    15:00 +28°C° 0 mm 2 m/s 750 mmHg 55%
    16:00 +28°C° 0 mm 2 m/s 749 mmHg 55%
    17:00 +27°C° 0 mm 2 m/s 749 mmHg 61%
    18:00 +26°C° 0 mm 2 m/s 749 mmHg 68%
    19:00 +25°C° 0 mm 2 m/s 749 mmHg 74%
    20:00 +23°C° 0 mm 2 m/s 749 mmHg 76%
    21:00 +21°C° 0 mm 1 m/s 749 mmHg 77%
    22:00 +20°C° 0 mm 1 m/s 749 mmHg 78%
    23:00 +19°C° 0 mm 1 m/s 749 mmHg 80%

    27 Iulie, Sâmbătă

    Timp Temperatura Precipitaţii Vânt Presiune Umiditate
    00:00 +19°C° 0 mm 1 m/s 748 mmHg 81%
    01:00 +16°C° 0 mm 0 m/s 748 mmHg 83%
    02:00 +16°C° 0 mm 0 m/s 748 mmHg 84%
    03:00 +16°C° 0 mm 0 m/s 748 mmHg 84%
    04:00 +15°C° 0 mm 0 m/s 748 mmHg 85%
    05:00 +17°C° 0 mm 0 m/s 748 mmHg 83%
    06:00 +18°C° 0 mm 0 m/s 748 mmHg 81%
    07:00 +19°C° 0 mm 0 m/s 747 mmHg 79%
    08:00 +21°C° 0 mm 0 m/s 747 mmHg 75%
    09:00 +24°C° 0 mm 1 m/s 747 mmHg 71%
    10:00 +25°C° 0 mm 1 m/s 747 mmHg 68%
    11:00 +26°C° 0.1 mm 2 m/s 746 mmHg 65%
    12:00 +27°C° 0.1 mm 2 m/s 746 mmHg 62%
    13:00 +27°C° 0.1 mm 2 m/s 745 mmHg 60%
    14:00 +27°C° 0.2 mm 3 m/s 745 mmHg 61%
    15:00 +27°C° 0.2 mm 3 m/s 745 mmHg 63%
    16:00 +27°C° 0.2 mm 3 m/s 744 mmHg 64%
    17:00 +26°C° 0.3 mm 3 m/s 744 mmHg 69%
    18:00 +25°C° 0.3 mm 2 m/s 743 mmHg 74%
    19:00 +24°C° 0.3 mm 2 m/s 743 mmHg 78%
    20:00 +23°C° 0.1 mm 2 m/s 742 mmHg 80%
    21:00 +20°C° 0.1 mm 2 m/s 742 mmHg 83%
    22:00 +19°C° 0.1 mm 2 m/s 742 mmHg 85%
    23:00 +19°C° 0 mm 2 m/s 741 mmHg 86%
    Arată mai mult